Time,TemperatureF,DewpointF,PressureIn,WindDirection,WindDirectionDegrees,WindSpeedMPH,WindSpeedGustMPH,Humidity,HourlyPrecipIn,Conditions,Clouds,dailyrainin,SoftwareType,DateUTC
2013-04-02 00:00:00,29.5,18.8,30.17,N/A,-737280,0.0,0.0,64,0.00,,,0.00,Wunderground v.1.13,2013-04-02 04:00:00,
2013-04-02 00:01:00,27.8,22.4,30.17,North,360,0.0,0.0,80,0.00,,,0.00,Wunderground v.1.13,2013-04-02 04:01:00,
2013-04-02 00:05:00,27.6,22.5,30.17,North,360,0.0,0.0,81,0.00,,,0.00,Wunderground v.1.13,2013-04-02 04:05:00,
2013-04-02 00:06:00,27.6,22.5,30.17,North,32767,0.0,0.0,81,0.00,,,0.00,Wunderground v.1.13,2013-04-02 04:06:00,
2013-04-02 00:11:00,29.5,19.2,30.16,N/A,-737280,0.0,0.0,65,0.00,,,0.00,Wunderground v.1.13,2013-04-02 04:11:00,
2013-04-02 00:17:00,27.4,22.6,30.16,North,32767,0.0,0.0,82,0.00,,,0.00,Wunderground v.1.13,2013-04-02 04:17:00,
2013-04-02 00:22:00,27.5,22.7,30.16,North,360,0.0,0.0,82,0.00,,,0.00,Wunderground v.1.13,2013-04-02 04:22:00,
2013-04-02 00:28:00,29.4,19.8,30.17,N/A,-737280,0.0,0.0,67,0.00,,,0.00,Wunderground v.1.13,2013-04-02 04:28:00,
2013-04-02 00:33:00,27.9,22.8,30.16,North,32767,0.0,0.0,81,0.00,,,0.00,Wunderground v.1.13,2013-04-02 04:33:00,
2013-04-02 00:38:00,28.0,22.3,30.16,North,32767,0.0,0.0,79,0.00,,,0.00,Wunderground v.1.13,2013-04-02 04:38:00,
2013-04-02 00:44:00,28.1,22.4,30.16,North,32767,0.0,0.0,79,0.00,,,0.00,Wunderground v.1.13,2013-04-02 04:44:00,
2013-04-02 00:49:00,28.1,22.4,30.16,North,360,0.0,0.0,79,0.00,,,0.00,Wunderground v.1.13,2013-04-02 04:49:00,
2013-04-02 00:55:00,28.0,22.3,30.16,North,360,0.0,0.0,79,0.00,,,0.00,Wunderground v.1.13,2013-04-02 04:55:00,
2013-04-02 01:00:00,27.9,22.2,30.16,North,360,0.0,0.0,79,0.00,,,0.00,Wunderground v.1.13,2013-04-02 05:00:00,
2013-04-02 01:06:00,27.7,22.3,30.16,North,360,0.0,0.0,80,0.00,,,0.00,Wunderground v.1.13,2013-04-02 05:06:00,
2013-04-02 01:12:00,27.6,22.2,30.16,North,32767,0.0,0.0,80,0.00,,,0.00,Wunderground v.1.13,2013-04-02 05:12:00,
2013-04-02 01:17:00,27.5,22.1,30.16,North,360,0.0,0.0,80,0.00,,,0.00,Wunderground v.1.13,2013-04-02 05:17:00,
2013-04-02 01:23:00,27.4,22.0,30.16,North,32767,0.0,0.0,80,0.00,,,0.00,Wunderground v.1.13,2013-04-02 05:23:00,
2013-04-02 01:29:00,27.3,22.2,30.16,North,360,0.0,0.0,81,0.00,,,0.00,Wunderground v.1.13,2013-04-02 05:29:00,
2013-04-02 01:34:00,27.2,22.1,30.16,North,360,0.0,0.0,81,0.00,,,0.00,Wunderground v.1.13,2013-04-02 05:34:00,
2013-04-02 01:40:00,27.2,22.1,30.16,North,32767,0.0,0.0,81,0.00,,,0.00,Wunderground v.1.13,2013-04-02 05:40:00,
2013-04-02 01:45:00,27.2,22.1,30.17,North,32767,0.0,0.0,81,0.00,,,0.00,Wunderground v.1.13,2013-04-02 05:45:00,
2013-04-02 01:50:00,27.1,22.0,30.17,North,32767,0.0,0.0,81,0.00,,,0.00,Wunderground v.1.13,2013-04-02 05:50:00,
2013-04-02 01:56:00,27.1,22.3,30.17,North,32767,0.0,0.0,82,0.00,,,0.00,Wunderground v.1.13,2013-04-02 05:56:00,
2013-04-02 02:01:00,27.1,22.3,30.17,North,32767,0.0,0.0,82,0.00,,,0.00,Wunderground v.1.13,2013-04-02 06:01:00,
2013-04-02 02:07:00,27.2,22.7,30.17,North,32767,0.0,0.0,83,0.00,,,0.00,Wunderground v.1.13,2013-04-02 06:07:00,
2013-04-02 02:13:00,27.1,22.6,30.17,North,32767,0.0,0.0,83,0.00,,,0.00,Wunderground v.1.13,2013-04-02 06:13:00,
2013-04-02 02:19:00,27.1,22.6,30.17,North,32767,0.0,0.0,83,0.00,,,0.00,Wunderground v.1.13,2013-04-02 06:19:00,
2013-04-02 02:24:00,27.1,22.9,30.17,North,360,0.0,0.0,84,0.00,,,0.00,Wunderground v.1.13,2013-04-02 06:24:00,
2013-04-02 02:29:00,27.1,22.9,30.17,North,360,0.0,0.0,84,0.00,,,0.00,Wunderground v.1.13,2013-04-02 06:29:00,
2013-04-02 02:34:00,27.1,22.9,30.17,North,32767,0.0,0.0,84,0.00,,,0.00,Wunderground v.1.13,2013-04-02 06:34:00,
2013-04-02 02:40:00,27.0,22.8,30.17,North,32767,0.0,0.0,84,0.00,,,0.00,Wunderground v.1.13,2013-04-02 06:40:00,
2013-04-02 02:47:00,26.9,22.7,30.17,North,32767,0.0,0.0,84,0.00,,,0.00,Wunderground v.1.13,2013-04-02 06:47:00,
2013-04-02 02:52:00,26.9,23.0,30.17,North,360,0.0,0.0,85,0.00,,,0.00,Wunderground v.1.13,2013-04-02 06:52:00,
2013-04-02 02:58:00,27.0,23.1,30.17,North,360,0.0,0.0,85,0.00,,,0.00,Wunderground v.1.13,2013-04-02 06:58:00,
2013-04-02 03:03:00,27.0,23.1,30.17,North,32767,0.0,0.0,85,0.00,,,0.00,Wunderground v.1.13,2013-04-02 07:03:00,
2013-04-02 03:10:00,26.9,23.0,30.17,North,360,0.0,0.0,85,0.00,,,0.00,Wunderground v.1.13,2013-04-02 07:10:00,
2013-04-02 03:15:00,26.9,23.0,30.17,North,32767,0.0,0.0,85,0.00,,,0.00,Wunderground v.1.13,2013-04-02 07:15:00,
2013-04-02 03:20:00,26.9,23.0,30.17,North,32767,0.0,0.0,85,0.00,,,0.00,Wunderground v.1.13,2013-04-02 07:20:00,
2013-04-02 03:26:00,26.9,23.0,30.17,North,32767,0.0,0.0,85,0.00,,,0.00,Wunderground v.1.13,2013-04-02 07:26:00,
2013-04-02 03:31:00,26.9,23.0,30.17,North,360,0.0,0.0,85,0.00,,,0.00,Wunderground v.1.13,2013-04-02 07:31:00,
2013-04-02 03:36:00,26.9,23.0,30.17,North,32767,0.0,0.0,85,0.00,,,0.00,Wunderground v.1.13,2013-04-02 07:36:00,
2013-04-02 03:42:00,26.9,23.0,30.17,North,32767,0.0,0.0,85,0.00,,,0.00,Wunderground v.1.13,2013-04-02 07:42:00,
2013-04-02 03:47:00,26.9,23.0,30.17,North,32767,0.0,0.0,85,0.00,,,0.00,Wunderground v.1.13,2013-04-02 07:47:00,
2013-04-02 03:52:00,26.8,22.9,30.17,North,360,0.0,0.0,85,0.00,,,0.00,Wunderground v.1.13,2013-04-02 07:52:00,
2013-04-02 03:59:00,26.8,22.9,30.17,North,32767,0.0,0.0,85,0.00,,,0.00,Wunderground v.1.13,2013-04-02 07:59:00,
2013-04-02 04:04:00,26.8,22.9,30.17,North,32767,0.0,0.0,85,0.00,,,0.00,Wunderground v.1.13,2013-04-02 08:04:00,
2013-04-02 04:10:00,26.9,22.7,30.17,North,32767,0.0,0.0,84,0.00,,,0.00,Wunderground v.1.13,2013-04-02 08:10:00,
2013-04-02 04:15:00,26.9,22.7,30.17,North,360,0.0,0.0,84,0.00,,,0.00,Wunderground v.1.13,2013-04-02 08:15:00,
2013-04-02 04:21:00,26.8,22.3,30.17,North,360,0.0,0.0,83,0.00,,,0.00,Wunderground v.1.13,2013-04-02 08:21:00,
2013-04-02 04:27:00,26.7,22.2,30.17,North,32767,0.0,0.0,83,0.00,,,0.00,Wunderground v.1.13,2013-04-02 08:27:00,
2013-04-02 04:32:00,26.7,22.2,30.17,North,32767,0.0,0.0,83,0.00,,,0.00,Wunderground v.1.13,2013-04-02 08:32:00,
2013-04-02 04:38:00,26.6,22.1,30.17,North,32767,0.0,0.0,83,0.00,,,0.00,Wunderground v.1.13,2013-04-02 08:38:00,
2013-04-02 04:44:00,26.5,22.0,30.17,North,32767,0.0,0.0,83,0.00,,,0.00,Wunderground v.1.13,2013-04-02 08:44:00,
2013-04-02 04:49:00,26.4,21.7,30.17,North,32767,0.0,0.0,82,0.00,,,0.00,Wunderground v.1.13,2013-04-02 08:49:00,
2013-04-02 04:54:00,26.4,21.7,30.17,North,360,0.0,0.0,82,0.00,,,0.00,Wunderground v.1.13,2013-04-02 08:54:00,
2013-04-02 05:00:00,26.3,21.6,30.18,North,32767,0.0,0.0,82,0.00,,,0.00,Wunderground v.1.13,2013-04-02 09:00:00,
2013-04-02 05:07:00,26.2,21.5,30.18,North,360,0.0,0.0,82,0.00,,,0.00,Wunderground v.1.13,2013-04-02 09:07:00,
2013-04-02 05:12:00,26.3,21.3,30.18,North,32767,0.0,0.0,81,0.00,,,0.00,Wunderground v.1.13,2013-04-02 09:12:00,
2013-04-02 05:18:00,26.2,21.2,30.18,North,360,0.0,0.0,81,0.00,,,0.00,Wunderground v.1.13,2013-04-02 09:18:00,
2013-04-02 05:23:00,26.2,21.2,30.18,North,360,0.0,0.0,81,0.00,,,0.00,Wunderground v.1.13,2013-04-02 09:23:00,
2013-04-02 05:29:00,26.2,20.9,30.19,North,360,0.0,0.0,80,0.00,,,0.00,Wunderground v.1.13,2013-04-02 09:29:00,
2013-04-02 05:34:00,26.2,20.9,30.19,North,360,0.0,0.0,80,0.00,,,0.00,Wunderground v.1.13,2013-04-02 09:34:00,
2013-04-02 05:40:00,26.1,20.8,30.19,North,360,0.0,0.0,80,0.00,,,0.00,Wunderground v.1.13,2013-04-02 09:40:00,
2013-04-02 05:45:00,26.1,20.8,30.19,North,360,0.0,0.0,80,0.00,,,0.00,Wunderground v.1.13,2013-04-02 09:45:00,
2013-04-02 05:50:00,26.0,20.7,30.19,North,360,0.0,0.0,80,0.00,,,0.00,Wunderground v.1.13,2013-04-02 09:50:00,
2013-04-02 05:56:00,25.8,20.5,30.19,North,360,0.0,0.0,80,0.00,,,0.00,Wunderground v.1.13,2013-04-02 09:56:00,
2013-04-02 06:01:00,25.8,20.5,30.19,North,32767,0.0,0.0,80,0.00,,,0.00,Wunderground v.1.13,2013-04-02 10:01:00,
2013-04-02 06:07:00,25.7,20.7,30.19,North,32767,0.0,0.0,81,0.00,,,0.00,Wunderground v.1.13,2013-04-02 10:07:00,
2013-04-02 06:13:00,25.6,20.6,30.20,North,32767,0.0,0.0,81,0.00,,,0.00,Wunderground v.1.13,2013-04-02 10:13:00,
2013-04-02 06:18:00,25.4,20.4,30.20,North,32767,0.0,0.0,81,0.00,,,0.00,Wunderground v.1.13,2013-04-02 10:18:00,
2013-04-02 06:24:00,25.3,20.3,30.20,North,32767,0.0,0.0,81,0.00,,,0.00,Wunderground v.1.13,2013-04-02 10:24:00,
2013-04-02 06:30:00,25.2,20.2,30.20,North,32767,0.0,0.0,81,0.00,,,0.00,Wunderground v.1.13,2013-04-02 10:30:00,
2013-04-02 06:36:00,25.3,20.3,30.20,North,32767,0.0,0.0,81,0.00,,,0.00,Wunderground v.1.13,2013-04-02 10:36:00,
2013-04-02 06:41:00,25.2,20.2,30.20,North,32767,0.0,0.0,81,0.00,,,0.00,Wunderground v.1.13,2013-04-02 10:41:00,
2013-04-02 06:47:00,25.1,20.4,30.20,North,32767,0.0,0.0,82,0.00,,,0.00,Wunderground v.1.13,2013-04-02 10:47:00,
2013-04-02 06:52:00,24.8,20.1,30.20,North,32767,0.0,0.0,82,0.00,,,0.00,Wunderground v.1.13,2013-04-02 10:52:00,
2013-04-02 06:58:00,24.6,19.9,30.21,North,32767,0.0,0.0,82,0.00,,,0.00,Wunderground v.1.13,2013-04-02 10:58:00,
2013-04-02 07:04:00,24.5,19.8,30.21,North,360,0.0,0.0,82,0.00,,,0.00,Wunderground v.1.13,2013-04-02 11:04:00,
2013-04-02 07:10:00,24.6,20.2,30.21,North,360,0.0,0.0,83,0.00,,,0.00,Wunderground v.1.13,2013-04-02 11:10:00,
2013-04-02 07:15:00,24.8,20.4,30.21,North,32767,0.0,0.0,83,0.00,,,0.00,Wunderground v.1.13,2013-04-02 11:15:00,
2013-04-02 07:20:00,25.0,20.6,30.21,North,360,0.0,0.0,83,0.00,,,0.00,Wunderground v.1.13,2013-04-02 11:20:00,
2013-04-02 07:26:00,25.3,20.6,30.21,North,32767,0.0,0.0,82,0.00,,,0.00,Wunderground v.1.13,2013-04-02 11:26:00,
2013-04-02 07:32:00,25.4,20.7,30.22,North,360,0.0,0.0,82,0.00,,,0.00,Wunderground v.1.13,2013-04-02 11:32:00,
2013-04-02 07:39:00,25.6,20.9,30.22,North,32767,0.0,0.0,82,0.00,,,0.00,Wunderground v.1.13,2013-04-02 11:39:00,
2013-04-02 07:45:00,25.7,20.7,30.22,North,32767,0.0,0.0,81,0.00,,,0.00,Wunderground v.1.13,2013-04-02 11:45:00,
2013-04-02 07:50:00,25.8,20.8,30.22,North,360,0.0,0.0,81,0.00,,,0.00,Wunderground v.1.13,2013-04-02 11:50:00,
2013-04-02 07:55:00,26.0,21.0,30.22,North,32767,0.0,0.0,81,0.00,,,0.00,Wunderground v.1.13,2013-04-02 11:55:00,
2013-04-02 08:00:00,26.2,21.2,30.23,North,360,0.0,0.0,81,0.00,,,0.00,Wunderground v.1.13,2013-04-02 12:00:00,
2013-04-02 08:07:00,26.5,21.2,30.23,North,360,0.0,0.0,80,0.00,,,0.00,Wunderground v.1.13,2013-04-02 12:07:00,
2013-04-02 08:13:00,26.8,21.5,30.23,North,360,0.0,0.0,80,0.00,,,0.00,Wunderground v.1.13,2013-04-02 12:13:00,
2013-04-02 08:19:00,27.1,21.5,30.23,North,32767,0.0,0.0,79,0.00,,,0.00,Wunderground v.1.13,2013-04-02 12:19:00,
2013-04-02 08:24:00,27.4,21.4,30.23,North,32767,0.0,0.0,78,0.00,,,0.00,Wunderground v.1.13,2013-04-02 12:24:00,
2013-04-02 08:29:00,27.7,21.4,30.23,North,32767,0.0,0.0,77,0.00,,,0.00,Wunderground v.1.13,2013-04-02 12:29:00,
2013-04-02 08:35:00,28.0,21.7,30.23,North,32767,0.0,0.0,77,0.00,,,0.00,Wunderground v.1.13,2013-04-02 12:35:00,
2013-04-02 08:41:00,28.3,21.7,30.23,North,32767,0.0,0.0,76,0.00,,,0.00,Wunderground v.1.13,2013-04-02 12:41:00,
2013-04-02 08:46:00,28.8,22.2,30.24,North,360,0.0,0.0,76,0.00,,,0.00,Wunderground v.1.13,2013-04-02 12:46:00,
2013-04-02 08:51:00,29.0,22.1,30.24,North,32767,0.0,0.0,75,0.00,,,0.00,Wunderground v.1.13,2013-04-02 12:51:00,
2013-04-02 08:56:00,29.5,22.6,30.24,North,360,0.0,0.0,75,0.00,,,0.00,Wunderground v.1.13,2013-04-02 12:56:00,
2013-04-02 09:02:00,29.7,22.4,30.24,North,360,0.0,0.0,74,0.00,,,0.00,Wunderground v.1.13,2013-04-02 13:02:00,
2013-04-02 09:07:00,30.0,22.7,30.24,North,32767,0.0,0.0,74,0.00,,,0.00,Wunderground v.1.13,2013-04-02 13:07:00,
2013-04-02 09:13:00,30.4,22.8,30.24,North,360,0.0,0.0,73,0.00,,,0.00,Wunderground v.1.13,2013-04-02 13:13:00,
2013-04-02 09:18:00,30.8,22.8,30.24,North,32767,0.0,0.0,72,0.00,,,0.00,Wunderground v.1.13,2013-04-02 13:18:00,
2013-04-02 09:24:00,31.3,22.6,30.24,North,32767,0.0,0.0,70,0.00,,,0.00,Wunderground v.1.13,2013-04-02 13:24:00,
2013-04-02 09:30:00,31.5,22.8,30.24,North,32767,0.0,0.0,70,0.00,,,0.00,Wunderground v.1.13,2013-04-02 13:30:00,
2013-04-02 09:35:00,32.0,23.0,30.24,North,32767,0.0,0.0,69,0.00,,,0.00,Wunderground v.1.13,2013-04-02 13:35:00,
2013-04-02 09:41:00,32.0,22.3,30.24,North,360,0.0,0.0,67,0.00,,,0.00,Wunderground v.1.13,2013-04-02 13:41:00,
2013-04-02 09:46:00,32.3,22.2,30.25,North,32767,0.0,0.0,66,0.00,,,0.00,Wunderground v.1.13,2013-04-02 13:46:00,
2013-04-02 09:51:00,32.4,22.3,30.25,North,360,0.0,0.0,66,0.00,,,0.00,Wunderground v.1.13,2013-04-02 13:51:00,
2013-04-02 09:57:00,32.9,22.8,30.25,North,360,0.0,0.0,66,0.00,,,0.00,Wunderground v.1.13,2013-04-02 13:57:00,
2013-04-02 10:03:00,33.4,22.1,30.25,North,32767,0.0,0.0,63,0.00,,,0.00,Wunderground v.1.13,2013-04-02 14:03:00,
2013-04-02 10:08:00,33.3,20.9,30.25,North,360,0.0,0.0,60,0.00,,,0.00,Wunderground v.1.13,2013-04-02 14:08:00,
2013-04-02 10:13:00,33.3,20.5,30.25,North,32767,0.0,0.0,59,0.00,,,0.00,Wunderground v.1.13,2013-04-02 14:13:00,
2013-04-02 10:19:00,33.6,20.4,30.25,North,32767,0.0,0.0,58,0.00,,,0.00,Wunderground v.1.13,2013-04-02 14:19:00,
2013-04-02 10:24:00,33.4,19.4,30.25,North,360,0.0,0.0,56,0.00,,,0.00,Wunderground v.1.13,2013-04-02 14:24:00,
2013-04-02 10:30:00,33.5,19.5,30.25,North,360,0.0,0.0,56,0.00,,,0.00,Wunderground v.1.13,2013-04-02 14:30:00,
2013-04-02 10:35:00,34.0,19.5,30.25,North,360,0.0,0.0,55,0.00,,,0.00,Wunderground v.1.13,2013-04-02 14:35:00,
2013-04-02 10:41:00,34.4,19.9,30.25,North,360,0.0,0.0,55,0.00,,,0.00,Wunderground v.1.13,2013-04-02 14:41:00,
2013-04-02 10:45:00,34.2,19.7,30.25,North,360,0.0,0.0,55,0.00,,,0.00,Wunderground v.1.13,2013-04-02 14:45:00,
2013-04-02 10:51:00,34.3,19.8,30.25,North,360,0.0,0.0,55,0.00,,,0.00,Wunderground v.1.13,2013-04-02 14:51:00,
2013-04-02 10:57:00,34.4,19.9,30.25,North,32767,0.0,0.0,55,0.00,,,0.00,Wunderground v.1.13,2013-04-02 14:57:00,
2013-04-02 11:02:00,33.8,20.6,30.25,North,32767,0.0,0.0,58,0.00,,,0.00,Wunderground v.1.13,2013-04-02 15:02:00,
2013-04-02 11:07:00,33.7,19.7,30.25,North,32767,0.0,0.0,56,0.00,,,0.00,Wunderground v.1.13,2013-04-02 15:07:00,
2013-04-02 11:13:00,34.7,18.4,30.25,North,360,0.0,0.0,51,0.00,,,0.00,Wunderground v.1.13,2013-04-02 15:13:00,
2013-04-02 11:18:00,35.0,17.7,30.25,North,32767,0.0,0.0,49,0.00,,,0.00,Wunderground v.1.13,2013-04-02 15:18:00,
2013-04-02 11:24:00,35.4,18.1,30.25,North,32767,0.0,0.0,49,0.00,,,0.00,Wunderground v.1.13,2013-04-02 15:24:00,
2013-04-02 11:29:00,35.2,17.9,30.25,North,32767,0.0,0.0,49,0.00,,,0.00,Wunderground v.1.13,2013-04-02 15:29:00,
2013-04-02 11:35:00,35.3,17.5,30.25,North,32767,0.0,0.0,48,0.00,,,0.00,Wunderground v.1.13,2013-04-02 15:35:00,
2013-04-02 11:40:00,35.3,18.0,30.25,North,360,0.0,0.0,49,0.00,,,0.00,Wunderground v.1.13,2013-04-02 15:40:00,
2013-04-02 11:47:00,35.5,18.7,30.25,North,32767,0.0,0.0,50,0.00,,,0.00,Wunderground v.1.13,2013-04-02 15:47:00,
2013-04-02 11:52:00,35.7,18.9,30.25,North,32767,0.0,0.0,50,0.00,,,0.00,Wunderground v.1.13,2013-04-02 15:52:00,
2013-04-02 11:57:00,36.4,19.5,30.25,North,32767,0.0,0.0,50,0.00,,,0.00,Wunderground v.1.13,2013-04-02 15:57:00,
2013-04-02 12:03:00,36.4,19.5,30.25,North,32767,0.0,0.0,50,0.00,,,0.00,Wunderground v.1.13,2013-04-02 16:03:00,
2013-04-02 12:10:00,35.9,19.0,30.25,North,360,0.0,0.0,50,0.00,,,0.00,Wunderground v.1.13,2013-04-02 16:10:00,
2013-04-02 12:15:00,36.8,19.4,30.25,North,32767,0.0,0.0,49,0.00,,,0.00,Wunderground v.1.13,2013-04-02 16:15:00,
2013-04-02 12:20:00,37.1,19.2,30.25,North,360,0.0,0.0,48,0.00,,,0.00,Wunderground v.1.13,2013-04-02 16:20:00,
2013-04-02 12:27:00,36.6,18.2,30.25,North,32767,0.0,0.0,47,0.00,,,0.00,Wunderground v.1.13,2013-04-02 16:27:00,
2013-04-02 12:32:00,37.1,18.2,30.25,North,32767,0.0,0.0,46,0.00,,,0.00,Wunderground v.1.13,2013-04-02 16:32:00,
2013-04-02 12:37:00,37.1,18.7,30.25,North,32767,0.0,0.0,47,0.00,,,0.00,Wunderground v.1.13,2013-04-02 16:37:00,
2013-04-02 12:44:00,37.1,18.2,30.25,North,360,0.0,0.0,46,0.00,,,0.00,Wunderground v.1.13,2013-04-02 16:44:00,
2013-04-02 12:49:00,36.7,19.3,30.25,North,360,0.0,0.0,49,0.00,,,0.00,Wunderground v.1.13,2013-04-02 16:49:00,
2013-04-02 12:54:00,36.8,17.4,30.25,North,360,0.0,0.0,45,0.00,,,0.00,Wunderground v.1.13,2013-04-02 16:54:00,
2013-04-02 13:00:00,37.0,18.1,30.25,North,32767,0.0,0.0,46,0.00,,,0.00,Wunderground v.1.13,2013-04-02 17:00:00,
2013-04-02 13:08:00,37.4,18.0,30.25,North,32767,0.0,0.0,45,0.00,,,0.00,Wunderground v.1.13,2013-04-02 17:08:00,
2013-04-02 13:13:00,37.6,17.1,30.24,North,360,0.0,0.0,43,0.00,,,0.00,Wunderground v.1.13,2013-04-02 17:13:00,
2013-04-02 13:18:00,37.1,17.2,30.24,North,360,0.0,0.0,44,0.00,,,0.00,Wunderground v.1.13,2013-04-02 17:18:00,
2013-04-02 13:23:00,37.8,18.3,30.24,North,32767,0.0,0.0,45,0.00,,,0.00,Wunderground v.1.13,2013-04-02 17:23:00,
2013-04-02 13:29:00,37.7,17.2,30.24,North,32767,0.0,0.0,43,0.00,,,0.00,Wunderground v.1.13,2013-04-02 17:29:00,
2013-04-02 13:35:00,38.0,18.0,30.24,North,32767,0.0,0.0,44,0.00,,,0.00,Wunderground v.1.13,2013-04-02 17:35:00,
2013-04-02 13:40:00,37.9,17.9,30.24,North,32767,0.0,0.0,44,0.00,,,0.00,Wunderground v.1.13,2013-04-02 17:40:00,
2013-04-02 13:46:00,38.4,17.8,30.24,North,32767,0.0,0.0,43,0.00,,,0.00,Wunderground v.1.13,2013-04-02 17:46:00,
2013-04-02 13:52:00,38.3,17.2,30.24,North,360,0.0,0.0,42,0.00,,,0.00,Wunderground v.1.13,2013-04-02 17:52:00,
2013-04-02 13:57:00,38.6,17.5,30.24,North,360,0.0,0.0,42,0.00,,,0.00,Wunderground v.1.13,2013-04-02 17:57:00,
2013-04-02 14:04:00,38.2,17.1,30.24,North,360,0.0,0.0,42,0.00,,,0.00,Wunderground v.1.13,2013-04-02 18:04:00,
2013-04-02 14:09:00,37.6,17.1,30.24,North,32767,0.0,0.0,43,0.00,,,0.00,Wunderground v.1.13,2013-04-02 18:09:00,
2013-04-02 14:14:00,38.2,17.1,30.23,North,32767,0.0,0.0,42,0.00,,,0.00,Wunderground v.1.13,2013-04-02 18:14:00,
2013-04-02 14:19:00,38.6,17.5,30.23,North,32767,0.0,0.0,42,0.00,,,0.00,Wunderground v.1.13,2013-04-02 18:19:00,
2013-04-02 14:26:00,38.1,16.4,30.23,North,360,0.0,0.0,41,0.00,,,0.00,Wunderground v.1.13,2013-04-02 18:26:00,
2013-04-02 14:31:00,38.0,16.4,30.24,North,32767,0.0,0.0,41,0.00,,,0.00,Wunderground v.1.13,2013-04-02 18:31:00,
2013-04-02 14:38:00,37.9,16.8,30.24,North,32767,0.0,0.0,42,0.00,,,0.00,Wunderground v.1.13,2013-04-02 18:38:00,
2013-04-02 14:43:00,38.0,16.9,30.23,North,32767,0.0,0.0,42,0.00,,,0.00,Wunderground v.1.13,2013-04-02 18:43:00,
2013-04-02 14:49:00,38.0,16.4,30.23,North,32767,0.0,0.0,41,0.00,,,0.00,Wunderground v.1.13,2013-04-02 18:49:00,
2013-04-02 14:55:00,38.0,16.9,30.23,North,360,0.0,0.0,42,0.00,,,0.00,Wunderground v.1.13,2013-04-02 18:55:00,
2013-04-02 15:01:00,38.7,17.5,30.23,North,32767,0.0,0.0,42,0.00,,,0.00,Wunderground v.1.13,2013-04-02 19:01:00,
2013-04-02 15:06:00,38.6,17.5,30.23,North,360,0.0,0.0,42,0.00,,,0.00,Wunderground v.1.13,2013-04-02 19:06:00,
2013-04-02 15:13:00,38.5,16.8,30.23,North,360,0.0,0.0,41,0.00,,,0.00,Wunderground v.1.13,2013-04-02 19:13:00,
2013-04-02 15:18:00,38.2,17.1,30.23,North,360,0.0,0.0,42,0.00,,,0.00,Wunderground v.1.13,2013-04-02 19:18:00,
2013-04-02 15:24:00,38.0,15.8,30.23,North,32767,0.0,0.0,40,0.00,,,0.00,Wunderground v.1.13,2013-04-02 19:24:00,
2013-04-02 15:30:00,37.4,15.8,30.23,North,32767,0.0,0.0,41,0.00,,,0.00,Wunderground v.1.13,2013-04-02 19:30:00,
2013-04-02 15:36:00,38.1,16.4,30.23,North,32767,0.0,0.0,41,0.00,,,0.00,Wunderground v.1.13,2013-04-02 19:36:00,
2013-04-02 15:41:00,37.9,15.7,30.23,North,360,0.0,0.0,40,0.00,,,0.00,Wunderground v.1.13,2013-04-02 19:41:00,
2013-04-02 15:47:00,37.6,16.0,30.23,North,360,0.0,0.0,41,0.00,,,0.00,Wunderground v.1.13,2013-04-02 19:47:00,
2013-04-02 15:53:00,38.0,16.9,30.23,North,360,0.0,0.0,42,0.00,,,0.00,Wunderground v.1.13,2013-04-02 19:53:00,
2013-04-02 15:58:00,38.2,17.1,30.23,North,32767,0.0,0.0,42,0.00,,,0.00,Wunderground v.1.13,2013-04-02 19:58:00,
2013-04-02 16:03:00,38.5,16.8,30.23,North,32767,0.0,0.0,41,0.00,,,0.00,Wunderground v.1.13,2013-04-02 20:03:00,
2013-04-02 16:09:00,38.4,17.3,30.23,North,360,0.0,0.0,42,0.00,,,0.00,Wunderground v.1.13,2013-04-02 20:09:00,
2013-04-02 16:14:00,38.1,17.0,30.23,North,32767,0.0,0.0,42,0.00,,,0.00,Wunderground v.1.13,2013-04-02 20:14:00,
2013-04-02 16:20:00,37.5,16.5,30.23,North,32767,0.0,0.0,42,0.00,,,0.00,Wunderground v.1.13,2013-04-02 20:20:00,
2013-04-02 16:25:00,37.8,16.7,30.23,North,360,0.0,0.0,42,0.00,,,0.00,Wunderground v.1.13,2013-04-02 20:25:00,
2013-04-02 16:30:00,37.7,17.7,30.23,North,32767,0.0,0.0,44,0.00,,,0.00,Wunderground v.1.13,2013-04-02 20:30:00,
2013-04-02 16:36:00,37.9,16.8,30.23,North,32767,0.0,0.0,42,0.00,,,0.00,Wunderground v.1.13,2013-04-02 20:36:00,
2013-04-02 16:41:00,38.0,17.5,30.23,North,32767,0.0,0.0,43,0.00,,,0.00,Wunderground v.1.13,2013-04-02 20:41:00,
2013-04-02 16:47:00,38.1,18.1,30.23,North,32767,0.0,0.0,44,0.00,,,0.00,Wunderground v.1.13,2013-04-02 20:47:00,
2013-04-02 16:52:00,38.0,16.4,30.23,North,32767,0.0,0.0,41,0.00,,,0.00,Wunderground v.1.13,2013-04-02 20:52:00,
2013-04-02 16:58:00,37.5,15.9,30.23,North,32767,0.0,0.0,41,0.00,,,0.00,Wunderground v.1.13,2013-04-02 20:58:00,
2013-04-02 17:04:00,37.3,16.8,30.23,North,32767,0.0,0.0,43,0.00,,,0.00,Wunderground v.1.13,2013-04-02 21:04:00,
2013-04-02 17:10:00,37.4,16.9,30.23,North,32767,0.0,0.0,43,0.00,,,0.00,Wunderground v.1.13,2013-04-02 21:10:00,
2013-04-02 17:16:00,37.9,16.8,30.24,North,360,0.0,0.0,42,0.00,,,0.00,Wunderground v.1.13,2013-04-02 21:16:00,
2013-04-02 17:21:00,37.6,16.0,30.24,North,32767,0.0,0.0,41,0.00,,,0.00,Wunderground v.1.13,2013-04-02 21:21:00,
2013-04-02 17:26:00,37.5,14.8,30.24,North,360,0.0,0.0,39,0.00,,,0.00,Wunderground v.1.13,2013-04-02 21:26:00,
2013-04-02 17:32:00,37.4,13.5,30.25,North,360,0.0,0.0,37,0.00,,,0.00,Wunderground v.1.13,2013-04-02 21:32:00,
2013-04-02 17:37:00,37.5,14.8,30.25,North,32767,0.0,0.0,39,0.00,,,0.00,Wunderground v.1.13,2013-04-02 21:37:00,
2013-04-02 17:44:00,37.9,14.5,30.25,North,32767,0.0,0.0,38,0.00,,,0.00,Wunderground v.1.13,2013-04-02 21:44:00,
2013-04-02 17:49:00,37.4,14.1,30.25,North,32767,0.0,0.0,38,0.00,,,0.00,Wunderground v.1.13,2013-04-02 21:49:00,
2013-04-02 17:55:00,37.6,14.2,30.25,North,360,0.0,0.0,38,0.00,,,0.00,Wunderground v.1.13,2013-04-02 21:55:00,
2013-04-02 18:02:00,37.7,14.9,30.25,North,32767,0.0,0.0,39,0.00,,,0.00,Wunderground v.1.13,2013-04-02 22:02:00,
2013-04-02 18:08:00,37.6,14.2,30.25,North,32767,0.0,0.0,38,0.00,,,0.00,Wunderground v.1.13,2013-04-02 22:08:00,
2013-04-02 18:13:00,37.5,14.2,30.26,North,32767,0.0,0.0,38,0.00,,,0.00,Wunderground v.1.13,2013-04-02 22:13:00,
2013-04-02 18:19:00,37.6,14.2,30.26,North,360,0.0,0.0,38,0.00,,,0.00,Wunderground v.1.13,2013-04-02 22:19:00,
2013-04-02 18:26:00,37.6,14.2,30.26,North,360,0.0,0.0,38,0.00,,,0.00,Wunderground v.1.13,2013-04-02 22:26:00,
2013-04-02 18:31:00,37.5,14.8,30.26,North,360,0.0,0.0,39,0.00,,,0.00,Wunderground v.1.13,2013-04-02 22:31:00,
2013-04-02 18:36:00,37.3,14.6,30.26,North,360,0.0,0.0,39,0.00,,,0.00,Wunderground v.1.13,2013-04-02 22:36:00,
2013-04-02 18:42:00,37.3,14.6,30.26,North,360,0.0,0.0,39,0.00,,,0.00,Wunderground v.1.13,2013-04-02 22:42:00,
2013-04-02 18:47:00,37.5,15.3,30.26,North,360,0.0,0.0,40,0.00,,,0.00,Wunderground v.1.13,2013-04-02 22:47:00,
2013-04-02 18:53:00,37.5,15.3,30.26,North,360,0.0,0.0,40,0.00,,,0.00,Wunderground v.1.13,2013-04-02 22:53:00,
2013-04-02 18:59:00,37.5,15.9,30.26,North,360,0.0,0.0,41,0.00,,,0.00,Wunderground v.1.13,2013-04-02 22:59:00,
2013-04-02 19:04:00,37.3,16.3,30.26,North,32767,0.0,0.0,42,0.00,,,0.00,Wunderground v.1.13,2013-04-02 23:04:00,
2013-04-02 19:09:00,37.2,16.2,30.26,North,360,0.0,0.0,42,0.00,,,0.00,Wunderground v.1.13,2013-04-02 23:09:00,
2013-04-02 19:14:00,36.9,16.5,30.27,North,360,0.0,0.0,43,0.00,,,0.00,Wunderground v.1.13,2013-04-02 23:14:00,
2013-04-02 19:20:00,36.7,16.3,30.27,North,32767,0.0,0.0,43,0.00,,,0.00,Wunderground v.1.13,2013-04-02 23:20:00,
2013-04-02 19:27:00,36.5,16.1,30.27,North,360,0.0,0.0,43,0.00,,,0.00,Wunderground v.1.13,2013-04-02 23:27:00,
2013-04-02 19:32:00,36.2,16.4,30.27,North,360,0.0,0.0,44,0.00,,,0.00,Wunderground v.1.13,2013-04-02 23:32:00,
2013-04-02 19:39:00,35.9,16.1,30.27,North,360,0.0,0.0,44,0.00,,,0.00,Wunderground v.1.13,2013-04-02 23:39:00,
2013-04-02 19:44:00,35.7,16.4,30.27,North,360,0.0,0.0,45,0.00,,,0.00,Wunderground v.1.13,2013-04-02 23:44:00,
2013-04-02 19:50:00,35.3,16.6,30.27,North,360,0.0,0.0,46,0.00,,,0.00,Wunderground v.1.13,2013-04-02 23:50:00,
2013-04-02 19:57:00,35.1,16.9,30.27,North,360,0.0,0.0,47,0.00,,,0.00,Wunderground v.1.13,2013-04-02 23:57:00,
2013-04-02 20:02:00,34.9,16.7,30.27,North,32767,0.0,0.0,47,0.00,,,0.00,Wunderground v.1.13,2013-04-03 00:02:00,
2013-04-02 20:07:00,34.7,17.0,30.27,North,360,0.0,0.0,48,0.00,,,0.00,Wunderground v.1.13,2013-04-03 00:07:00,
2013-04-02 20:13:00,34.5,16.8,30.27,North,32767,0.0,0.0,48,0.00,,,0.00,Wunderground v.1.13,2013-04-03 00:13:00,
2013-04-02 20:18:00,34.4,17.2,30.27,North,360,0.0,0.0,49,0.00,,,0.00,Wunderground v.1.13,2013-04-03 00:18:00,
2013-04-02 20:24:00,34.4,17.2,30.27,North,32767,0.0,0.0,49,0.00,,,0.00,Wunderground v.1.13,2013-04-03 00:24:00,
2013-04-02 20:29:00,34.1,17.4,30.27,North,32767,0.0,0.0,50,0.00,,,0.00,Wunderground v.1.13,2013-04-03 00:29:00,
2013-04-02 20:35:00,33.9,17.2,30.27,North,32767,0.0,0.0,50,0.00,,,0.00,Wunderground v.1.13,2013-04-03 00:35:00,
2013-04-02 20:40:00,33.7,17.0,30.27,North,32767,0.0,0.0,50,0.00,,,0.00,Wunderground v.1.13,2013-04-03 00:40:00,
2013-04-02 20:46:00,33.5,17.3,30.28,North,360,0.0,0.0,51,0.00,,,0.00,Wunderground v.1.13,2013-04-03 00:46:00,
2013-04-02 20:52:00,33.4,17.2,30.28,North,32767,0.0,0.0,51,0.00,,,0.00,Wunderground v.1.13,2013-04-03 00:52:00,
2013-04-02 20:57:00,33.2,17.5,30.28,North,360,0.0,0.0,52,0.00,,,0.00,Wunderground v.1.13,2013-04-03 00:57:00,
2013-04-02 21:02:00,33.0,17.3,30.28,North,360,0.0,0.0,52,0.00,,,0.00,Wunderground v.1.13,2013-04-03 01:02:00,
2013-04-02 21:07:00,32.9,17.6,30.28,North,32767,0.0,0.0,53,0.00,,,0.00,Wunderground v.1.13,2013-04-03 01:07:00,
2013-04-02 21:13:00,32.7,17.9,30.29,North,32767,0.0,0.0,54,0.00,,,0.00,Wunderground v.1.13,2013-04-03 01:13:00,
2013-04-02 21:20:00,32.6,17.8,30.29,North,32767,0.0,0.0,54,0.00,,,0.00,Wunderground v.1.13,2013-04-03 01:20:00,
2013-04-02 21:25:00,32.4,18.0,30.29,North,32767,0.0,0.0,55,0.00,,,0.00,Wunderground v.1.13,2013-04-03 01:25:00,
2013-04-02 21:30:00,32.3,17.9,30.29,North,360,0.0,0.0,55,0.00,,,0.00,Wunderground v.1.13,2013-04-03 01:30:00,
2013-04-02 21:38:00,32.2,18.2,30.29,North,32767,0.0,0.0,56,0.00,,,0.00,Wunderground v.1.13,2013-04-03 01:38:00,
2013-04-02 21:43:00,32.1,18.2,30.30,North,32767,0.0,0.0,56,0.00,,,0.00,Wunderground v.1.13,2013-04-03 01:43:00,
2013-04-02 21:48:00,32.0,18.1,30.30,North,360,0.0,0.0,56,0.00,,,0.00,Wunderground v.1.13,2013-04-03 01:48:00,
2013-04-02 21:54:00,32.0,18.5,30.30,North,32767,0.0,0.0,57,0.00,,,0.00,Wunderground v.1.13,2013-04-03 01:54:00,
2013-04-02 21:59:00,31.8,18.3,30.30,North,32767,0.0,0.0,57,0.00,,,0.00,Wunderground v.1.13,2013-04-03 01:59:00,
2013-04-02 22:04:00,31.7,18.2,30.30,North,360,0.0,0.0,57,0.00,,,0.00,Wunderground v.1.13,2013-04-03 02:04:00,
2013-04-02 22:09:00,31.7,18.6,30.30,North,32767,0.0,0.0,58,0.00,,,0.00,Wunderground v.1.13,2013-04-03 02:09:00,
2013-04-02 22:15:00,31.6,18.5,30.31,North,32767,0.0,0.0,58,0.00,,,0.00,Wunderground v.1.13,2013-04-03 02:15:00,
2013-04-02 22:23:00,31.5,18.8,30.31,North,360,0.0,0.0,59,0.00,,,0.00,Wunderground v.1.13,2013-04-03 02:23:00,
2013-04-02 22:29:00,31.4,18.7,30.31,North,32767,0.0,0.0,59,0.00,,,0.00,Wunderground v.1.13,2013-04-03 02:29:00,
2013-04-02 22:34:00,31.3,18.6,30.31,North,32767,0.0,0.0,59,0.00,,,0.00,Wunderground v.1.13,2013-04-03 02:34:00,
2013-04-02 22:39:00,31.2,18.5,30.31,North,360,0.0,0.0,59,0.00,,,0.00,Wunderground v.1.13,2013-04-03 02:39:00,
2013-04-02 22:45:00,31.1,18.8,30.31,North,32767,0.0,0.0,60,0.00,,,0.00,Wunderground v.1.13,2013-04-03 02:45:00,
2013-04-02 22:51:00,30.9,18.6,30.31,North,360,0.0,0.0,60,0.00,,,0.00,Wunderground v.1.13,2013-04-03 02:51:00,
2013-04-02 22:56:00,30.8,18.5,30.31,North,32767,0.0,0.0,60,0.00,,,0.00,Wunderground v.1.13,2013-04-03 02:56:00,
2013-04-02 23:02:00,30.7,18.8,30.31,North,360,0.0,0.0,61,0.00,,,0.00,Wunderground v.1.13,2013-04-03 03:02:00,
2013-04-02 23:07:00,30.6,18.7,30.31,North,32767,0.0,0.0,61,0.00,,,0.00,Wunderground v.1.13,2013-04-03 03:07:00,
2013-04-02 23:13:00,30.5,19.0,30.31,North,32767,0.0,0.0,62,0.00,,,0.00,Wunderground v.1.13,2013-04-03 03:13:00,
2013-04-02 23:20:00,30.5,19.0,30.31,North,32767,0.0,0.0,62,0.00,,,0.00,Wunderground v.1.13,2013-04-03 03:20:00,
2013-04-02 23:27:00,30.5,19.0,30.31,North,32767,0.0,0.0,62,0.00,,,0.00,Wunderground v.1.13,2013-04-03 03:27:00,
2013-04-02 23:33:00,30.4,19.3,30.31,North,360,0.0,0.0,63,0.00,,,0.00,Wunderground v.1.13,2013-04-03 03:33:00,
2013-04-02 23:39:00,30.3,19.2,30.31,North,360,0.0,0.0,63,0.00,,,0.00,Wunderground v.1.13,2013-04-03 03:39:00,
2013-04-02 23:45:00,30.3,19.2,30.31,North,360,0.0,0.0,63,0.00,,,0.00,Wunderground v.1.13,2013-04-03 03:45:00,
2013-04-02 23:50:00,30.2,19.5,30.31,North,360,0.0,0.0,64,0.00,,,0.00,Wunderground v.1.13,2013-04-03 03:50:00,
2013-04-02 23:56:00,30.6,18.7,30.31,N/A,-737280,0.0,0.0,61,0.00,,,0.00,Wunderground v.1.13,2013-04-03 03:56:00,